Time,TemperatureF,DewpointF,PressureIn,WindDirection,WindDirectionDegrees,WindSpeedMPH,WindSpeedGustMPH,Humidity,HourlyPrecipIn,Conditions,Clouds,dailyrainin,SoftwareType,DateUTC
2013-05-10 00:03:00,68.0,63.0,30.06,West,261,2.0,5.0,83,0.00,,,0.00,,2013-05-10 04:03:00,
2013-05-10 00:12:00,68.0,63.0,30.06,West,261,2.0,5.0,83,0.00,,,0.00,,2013-05-10 04:12:00,
2013-05-10 00:23:00,68.0,62.0,30.06,South,170,1.0,4.0,82,0.00,,,0.00,,2013-05-10 04:23:00,
2013-05-10 00:33:00,68.0,62.0,30.06,South,188,1.0,4.0,82,0.00,,,0.00,,2013-05-10 04:33:00,
2013-05-10 00:43:00,68.0,62.0,30.06,SW,215,1.0,6.0,81,0.00,,,0.00,,2013-05-10 04:43:00,
2013-05-10 00:53:00,68.0,62.0,30.06,SW,215,1.0,6.0,81,0.00,,,0.00,,2013-05-10 04:53:00,
2013-05-10 01:02:00,68.0,62.0,30.06,SW,235,0.0,6.0,80,0.00,,,0.00,,2013-05-10 05:02:00,
2013-05-10 01:12:00,68.0,62.0,30.06,West,273,1.0,6.0,80,0.00,,,0.00,,2013-05-10 05:12:00,
2013-05-10 01:22:00,68.0,62.0,30.06,West,273,1.0,6.0,80,0.00,,,0.00,,2013-05-10 05:22:00,
2013-05-10 01:32:00,68.0,61.0,30.06,SW,225,1.0,5.0,79,0.00,,,0.00,,2013-05-10 05:32:00,
2013-05-10 01:42:00,68.0,61.0,30.06,SW,225,1.0,4.0,79,0.00,,,0.00,,2013-05-10 05:42:00,
2013-05-10 01:52:00,68.0,61.0,30.06,SW,225,1.0,4.0,79,0.00,,,0.00,,2013-05-10 05:52:00,
2013-05-10 02:02:00,68.0,61.0,30.05,SSW,209,1.0,5.0,79,0.00,,,0.00,,2013-05-10 06:02:00,
2013-05-10 02:12:00,68.0,62.0,30.05,SW,228,1.0,4.0,80,0.00,,,0.00,,2013-05-10 06:12:00,
2013-05-10 02:21:00,68.0,62.0,30.05,SW,228,1.0,4.0,80,0.00,,,0.00,,2013-05-10 06:21:00,
2013-05-10 02:32:00,68.0,62.0,30.05,WSW,238,1.0,6.0,80,0.00,,,0.00,,2013-05-10 06:32:00,
2013-05-10 02:42:00,68.0,62.0,30.05,WSW,238,1.0,6.0,80,0.00,,,0.00,,2013-05-10 06:42:00,
2013-05-10 02:52:00,67.0,61.0,30.04,WSW,244,0.0,4.0,80,0.00,,,0.00,,2013-05-10 06:52:00,
2013-05-10 03:02:00,67.0,61.0,30.04,WSW,257,1.0,5.0,80,0.00,,,0.00,,2013-05-10 07:02:00,
2013-05-10 03:12:00,67.0,61.0,30.04,WSW,257,1.0,5.0,80,0.00,,,0.00,,2013-05-10 07:12:00,
2013-05-10 03:22:00,67.0,61.0,30.04,SW,227,0.0,3.0,81,0.00,,,0.00,,2013-05-10 07:22:00,
2013-05-10 03:31:00,67.0,61.0,30.05,SSW,209,1.0,5.0,81,0.00,,,0.00,,2013-05-10 07:31:00,
2013-05-10 03:42:00,67.0,61.0,30.05,West,275,2.0,6.0,81,0.00,,,0.00,,2013-05-10 07:42:00,
2013-05-10 03:52:00,67.0,61.0,30.05,West,275,2.0,6.0,81,0.00,,,0.00,,2013-05-10 07:52:00,
2013-05-10 04:02:00,67.0,61.0,30.05,SW,214,1.0,4.0,81,0.00,,,0.00,,2013-05-10 08:02:00,
2013-05-10 04:12:00,67.0,61.0,30.05,SW,214,1.0,4.0,81,0.00,,,0.00,,2013-05-10 08:12:00,
2013-05-10 04:22:00,66.0,60.0,30.05,SW,232,1.0,4.0,82,0.00,,,0.00,,2013-05-10 08:22:00,
2013-05-10 04:32:00,66.0,60.0,30.04,SSW,208,0.0,3.0,82,0.00,,,0.00,,2013-05-10 08:32:00,
2013-05-10 04:42:00,66.0,61.0,30.04,South,173,0.0,4.0,83,0.00,,,0.00,,2013-05-10 08:42:00,
2013-05-10 04:52:00,66.0,61.0,30.04,South,173,0.0,4.0,83,0.00,,,0.00,,2013-05-10 08:52:00,
2013-05-10 05:01:00,66.0,61.0,30.04,South,184,0.0,3.0,84,0.00,,,0.00,,2013-05-10 09:01:00,
2013-05-10 05:11:00,66.0,61.0,30.04,South,184,0.0,3.0,84,0.00,,,0.00,,2013-05-10 09:11:00,
2013-05-10 05:21:00,66.0,61.0,30.04,SSW,206,0.0,3.0,84,0.00,,,0.00,,2013-05-10 09:21:00,
2013-05-10 05:32:00,65.0,60.0,30.03,SW,214,0.0,3.0,84,0.00,,,0.00,,2013-05-10 09:32:00,
2013-05-10 05:43:00,65.0,60.0,30.03,SW,214,0.0,3.0,84,0.00,,,0.00,,2013-05-10 09:43:00,
2013-05-10 05:52:00,65.0,60.0,30.03,SW,219,0.0,2.0,84,0.00,,,0.00,,2013-05-10 09:52:00,
2013-05-10 06:03:00,65.0,60.0,30.04,SW,219,0.0,2.0,85,0.00,,,0.00,,2013-05-10 10:03:00,
2013-05-10 06:12:00,65.0,60.0,30.04,SW,219,0.0,2.0,85,0.00,,,0.00,,2013-05-10 10:12:00,
2013-05-10 06:23:00,65.0,60.0,30.04,South,180,0.0,3.0,85,0.00,,,0.00,,2013-05-10 10:23:00,
2013-05-10 06:32:00,65.0,60.0,30.04,SSW,212,1.0,3.0,85,0.00,,,0.00,,2013-05-10 10:32:00,
2013-05-10 06:42:00,65.0,60.0,30.04,SSW,212,1.0,3.0,85,0.00,,,0.00,,2013-05-10 10:42:00,
2013-05-10 06:53:00,65.0,60.0,30.05,West,262,1.0,4.0,85,0.00,,,0.00,,2013-05-10 10:53:00,
2013-05-10 07:02:00,65.0,60.0,30.05,SSW,205,0.0,2.0,85,0.00,,,0.00,,2013-05-10 11:02:00,
2013-05-10 07:12:00,65.0,61.0,30.05,South,188,0.0,2.0,86,0.00,,,0.00,,2013-05-10 11:12:00,
2013-05-10 07:22:00,65.0,61.0,30.05,South,188,0.0,2.0,86,0.00,,,0.00,,2013-05-10 11:22:00,
2013-05-10 07:32:00,65.0,61.0,30.06,South,188,0.0,2.0,86,0.00,,,0.00,,2013-05-10 11:32:00,
2013-05-10 07:42:00,66.0,62.0,30.06,South,187,0.0,4.0,86,0.00,,,0.00,,2013-05-10 11:42:00,
2013-05-10 07:52:00,66.0,62.0,30.06,South,187,0.0,4.0,86,0.00,,,0.00,,2013-05-10 11:52:00,
2013-05-10 08:01:00,67.0,62.0,30.06,SSW,202,1.0,3.0,85,0.00,,,0.00,,2013-05-10 12:01:00,
2013-05-10 08:12:00,67.0,62.0,30.06,SSW,202,1.0,3.0,85,0.00,,,0.00,,2013-05-10 12:12:00,
2013-05-10 08:22:00,68.0,62.0,30.06,SSW,211,2.0,8.0,82,0.00,,,0.00,,2013-05-10 12:22:00,
2013-05-10 08:32:00,69.0,63.0,30.06,WSW,257,2.0,5.0,80,0.00,,,0.00,,2013-05-10 12:32:00,
2013-05-10 08:42:00,69.0,63.0,30.06,WSW,257,2.0,5.0,80,0.00,,,0.00,,2013-05-10 12:42:00,
2013-05-10 08:52:00,70.0,63.0,30.06,SSE,154,1.0,4.0,78,0.00,,,0.00,,2013-05-10 12:52:00,
2013-05-10 09:01:00,68.0,63.0,30.05,SE,144,3.0,6.0,83,0.00,,,0.00,,2013-05-10 13:01:00,
2013-05-10 09:11:00,68.0,63.0,30.05,SE,144,3.0,6.0,83,0.00,,,0.00,,2013-05-10 13:11:00,
2013-05-10 09:21:00,68.0,63.0,30.05,SE,144,5.0,8.0,83,0.00,,,0.00,,2013-05-10 13:21:00,
2013-05-10 09:32:00,69.0,64.0,30.06,SE,130,3.0,7.0,85,0.00,,,0.00,,2013-05-10 13:32:00,
2013-05-10 09:42:00,69.0,64.0,30.06,SSE,149,5.0,8.0,83,0.00,,,0.00,,2013-05-10 13:42:00,
2013-05-10 09:52:00,69.0,64.0,30.06,SSE,149,5.0,8.0,83,0.00,,,0.00,,2013-05-10 13:52:00,
2013-05-10 10:02:00,69.0,64.0,30.06,SSE,148,3.0,7.0,83,0.00,,,0.00,,2013-05-10 14:02:00,
2013-05-10 10:11:00,69.0,64.0,30.06,SSE,148,3.0,7.0,83,0.00,,,0.00,,2013-05-10 14:11:00,
2013-05-10 10:21:00,70.0,64.0,30.06,South,184,2.0,8.0,82,0.00,,,0.00,,2013-05-10 14:21:00,
2013-05-10 10:32:00,69.0,64.0,30.06,SSE,149,6.0,9.0,85,0.00,,,0.00,,2013-05-10 14:32:00,
2013-05-10 10:42:00,69.0,64.0,30.06,SSE,149,6.0,9.0,85,0.00,,,0.00,,2013-05-10 14:42:00,
2013-05-10 10:52:00,69.0,64.0,30.06,SSE,149,6.0,9.0,85,0.00,,,0.00,,2013-05-10 14:52:00,
2013-05-10 11:02:00,70.0,65.0,30.06,SE,142,4.0,10.0,84,0.00,,,0.00,,2013-05-10 15:02:00,
2013-05-10 11:20:00,-999.0,-99.9,30.06,SSW,194,4.0,8.0,84,0.00,,,0.00,,2013-05-10 15:20:00,
2013-05-10 11:32:00,72.0,67.0,30.06,SE,146,3.0,8.0,83,0.00,,,0.00,,2013-05-10 15:32:00,
2013-05-10 11:42:00,71.0,66.0,30.06,SSE,152,6.0,10.0,85,0.00,,,0.00,,2013-05-10 15:42:00,
2013-05-10 11:53:00,71.0,66.0,30.06,SSE,152,6.0,10.0,85,0.00,,,0.00,,2013-05-10 15:53:00,
2013-05-10 12:02:00,72.0,68.0,30.05,South,171,3.0,8.0,86,0.00,,,0.00,,2013-05-10 16:02:00,
2013-05-10 12:12:00,71.0,67.0,30.05,South,173,4.0,7.0,86,0.00,,,0.00,,2013-05-10 16:12:00,
2013-05-10 12:23:00,71.0,67.0,30.05,South,173,4.0,7.0,86,0.00,,,0.00,,2013-05-10 16:23:00,
2013-05-10 12:32:00,71.0,68.0,30.04,SE,140,6.0,10.0,89,0.00,,,0.00,,2013-05-10 16:32:00,
2013-05-10 12:42:00,71.0,68.0,30.04,SE,133,4.0,10.0,89,0.00,,,0.00,,2013-05-10 16:42:00,
2013-05-10 12:53:00,71.0,68.0,30.04,SE,133,4.0,10.0,89,0.00,,,0.00,,2013-05-10 16:53:00,
2013-05-10 13:02:00,72.0,68.0,30.04,SSE,150,7.0,11.0,86,0.00,,,0.00,,2013-05-10 17:02:00,
2013-05-10 13:12:00,72.0,68.0,30.04,SSE,150,7.0,11.0,86,0.00,,,0.00,,2013-05-10 17:12:00,
2013-05-10 13:22:00,72.0,68.0,30.04,SE,146,5.0,9.0,88,0.00,,,0.00,,2013-05-10 17:22:00,
2013-05-10 13:32:00,71.0,68.0,30.04,SE,136,7.0,12.0,90,0.00,,,0.00,,2013-05-10 17:32:00,
2013-05-10 13:42:00,72.0,68.0,30.04,South,173,4.0,11.0,88,0.00,,,0.00,,2013-05-10 17:42:00,
2013-05-10 13:52:00,72.0,68.0,30.04,South,173,4.0,11.0,88,0.00,,,0.00,,2013-05-10 17:52:00,
2013-05-10 14:10:00,-999.0,-99.9,30.05,SSE,150,6.0,13.0,86,0.00,,,0.00,,2013-05-10 18:10:00,
2013-05-10 14:22:00,73.0,68.0,30.05,South,173,6.0,13.0,84,0.00,,,0.00,,2013-05-10 18:22:00,
2013-05-10 14:34:00,73.0,67.0,30.05,SSW,204,6.0,11.0,82,0.00,,,0.00,,2013-05-10 18:34:00,
2013-05-10 14:43:00,74.0,68.0,30.04,SSW,194,6.0,13.0,81,0.00,,,0.00,,2013-05-10 18:43:00,
2013-05-10 14:54:00,74.0,68.0,30.04,SSW,194,6.0,13.0,81,0.00,,,0.00,,2013-05-10 18:54:00,
2013-05-10 15:02:00,74.0,68.0,30.04,South,176,6.0,15.0,81,0.00,,,0.00,,2013-05-10 19:02:00,
2013-05-10 15:11:00,74.0,68.0,30.04,South,176,6.0,15.0,81,0.00,,,0.00,,2013-05-10 19:11:00,
2013-05-10 15:21:00,74.0,67.0,30.03,SSE,166,6.0,13.0,80,0.00,,,0.00,,2013-05-10 19:21:00,
2013-05-10 15:32:00,74.0,67.0,30.03,SSE,159,5.0,14.0,80,0.00,,,0.00,,2013-05-10 19:32:00,
2013-05-10 15:42:00,75.0,68.0,30.02,WSW,237,4.0,10.0,78,0.00,,,0.00,,2013-05-10 19:42:00,
2013-05-10 15:52:00,75.0,68.0,30.02,WSW,237,4.0,10.0,78,0.00,,,0.00,,2013-05-10 19:52:00,
2013-05-10 16:02:00,75.0,67.0,30.02,South,184,6.0,12.0,75,0.00,,,0.00,,2013-05-10 20:02:00,
2013-05-10 16:12:00,75.0,67.0,30.02,South,184,6.0,12.0,75,0.00,,,0.00,,2013-05-10 20:12:00,
2013-05-10 16:21:00,75.0,66.0,30.01,SE,126,6.0,12.0,74,0.00,,,0.00,,2013-05-10 20:21:00,
2013-05-10 16:32:00,74.0,66.0,30.01,SE,142,6.0,13.0,77,0.00,,,0.00,,2013-05-10 20:32:00,
2013-05-10 16:42:00,74.0,66.0,30.01,SE,142,6.0,13.0,77,0.00,,,0.00,,2013-05-10 20:42:00,
2013-05-10 16:52:00,74.0,67.0,30.01,South,181,5.0,12.0,79,0.00,,,0.00,,2013-05-10 20:52:00,
2013-05-10 17:02:00,74.0,67.0,30.00,South,171,5.0,12.0,79,0.00,,,0.00,,2013-05-10 21:02:00,
2013-05-10 17:11:00,75.0,68.0,30.00,South,169,6.0,13.0,78,0.00,,,0.00,,2013-05-10 21:11:00,
2013-05-10 17:25:00,75.0,68.0,30.00,South,169,6.0,13.0,78,0.00,,,0.00,,2013-05-10 21:25:00,
2013-05-10 17:32:00,74.0,67.0,30.00,SE,144,7.0,11.0,80,0.00,,,0.00,,2013-05-10 21:32:00,
2013-05-10 17:43:00,74.0,67.0,30.00,SE,144,7.0,11.0,80,0.00,,,0.00,,2013-05-10 21:43:00,
2013-05-10 17:53:00,74.0,67.0,30.00,SE,144,7.0,11.0,80,0.00,,,0.00,,2013-05-10 21:53:00,
2013-05-10 18:02:00,73.0,68.0,29.99,South,169,5.0,11.0,83,0.00,,,0.00,,2013-05-10 22:02:00,
2013-05-10 18:13:00,73.0,68.0,29.99,South,169,5.0,11.0,83,0.00,,,0.00,,2013-05-10 22:13:00,
2013-05-10 18:22:00,73.0,67.0,29.98,SE,138,4.0,10.0,82,0.00,,,0.00,,2013-05-10 22:22:00,
2013-05-10 18:32:00,72.0,66.0,29.99,SW,215,5.0,10.0,82,0.00,,,0.00,,2013-05-10 22:32:00,
2013-05-10 18:42:00,72.0,67.0,29.98,SSE,158,3.0,8.0,84,0.00,,,0.00,,2013-05-10 22:42:00,
2013-05-10 18:52:00,72.0,67.0,29.98,SSE,158,3.0,8.0,84,0.00,,,0.00,,2013-05-10 22:52:00,
2013-05-10 19:02:00,72.0,67.0,29.99,South,186,4.0,10.0,85,0.00,,,0.00,,2013-05-10 23:02:00,
2013-05-10 19:12:00,72.0,67.0,29.99,South,186,4.0,10.0,85,0.00,,,0.00,,2013-05-10 23:12:00,
2013-05-10 19:22:00,71.0,67.0,29.98,SE,142,4.0,9.0,86,0.00,,,0.00,,2013-05-10 23:22:00,
2013-05-10 19:33:00,71.0,67.0,29.99,SSE,148,4.0,9.0,86,0.00,,,0.00,,2013-05-10 23:33:00,
2013-05-10 19:42:00,70.0,66.0,29.99,South,188,2.0,9.0,87,0.00,,,0.00,,2013-05-10 23:42:00,
2013-05-10 19:52:00,70.0,66.0,29.99,South,188,2.0,9.0,87,0.00,,,0.00,,2013-05-10 23:52:00,
2013-05-10 20:02:00,70.0,66.0,29.99,SSE,158,3.0,10.0,88,0.00,,,0.00,,2013-05-11 00:02:00,
2013-05-10 20:11:00,70.0,67.0,29.99,South,169,3.0,8.0,89,0.00,,,0.00,,2013-05-11 00:11:00,
2013-05-10 20:21:00,70.0,67.0,29.99,South,169,3.0,8.0,89,0.00,,,0.00,,2013-05-11 00:21:00,
2013-05-10 20:32:00,70.0,67.0,29.99,South,183,3.0,8.0,89,0.00,,,0.00,,2013-05-11 00:32:00,
2013-05-10 20:42:00,70.0,67.0,29.99,South,183,5.0,11.0,90,0.00,,,0.00,,2013-05-11 00:42:00,
2013-05-10 20:52:00,70.0,67.0,29.99,South,183,5.0,11.0,90,0.00,,,0.00,,2013-05-11 00:52:00,
2013-05-10 21:01:00,70.0,67.0,29.99,SSE,162,3.0,10.0,89,0.00,,,0.00,,2013-05-11 01:01:00,
2013-05-10 21:11:00,70.0,67.0,29.99,SSE,162,3.0,10.0,89,0.00,,,0.00,,2013-05-11 01:11:00,
2013-05-10 21:21:00,70.0,67.0,29.99,SSW,196,3.0,9.0,89,0.00,,,0.00,,2013-05-11 01:21:00,
2013-05-10 21:32:00,69.0,66.0,30.00,SSW,207,2.0,6.0,90,0.00,,,0.00,,2013-05-11 01:32:00,
2013-05-10 21:42:00,69.0,66.0,29.99,SSW,200,3.0,7.0,91,0.00,,,0.00,,2013-05-11 01:42:00,
2013-05-10 21:52:00,69.0,66.0,29.99,SSW,200,3.0,7.0,91,0.00,,,0.00,,2013-05-11 01:52:00,
2013-05-10 22:02:00,69.0,66.0,30.00,SSW,196,3.0,6.0,91,0.00,,,0.00,,2013-05-11 02:02:00,
2013-05-10 22:11:00,69.0,66.0,30.00,SSW,196,3.0,6.0,91,0.00,,,0.00,,2013-05-11 02:11:00,
2013-05-10 22:22:00,69.0,66.0,30.01,SSW,210,4.0,8.0,91,0.00,,,0.00,,2013-05-11 02:22:00,
2013-05-10 22:32:00,69.0,66.0,30.01,SSW,196,4.0,9.0,91,0.00,,,0.00,,2013-05-11 02:32:00,
2013-05-10 22:42:00,69.0,66.0,30.01,SSW,194,3.0,9.0,91,0.00,,,0.00,,2013-05-11 02:42:00,
2013-05-10 22:52:00,69.0,66.0,30.01,SSW,194,3.0,9.0,91,0.00,,,0.00,,2013-05-11 02:52:00,
2013-05-10 23:01:00,69.0,66.0,30.01,SSW,207,3.0,8.0,91,0.00,,,0.00,,2013-05-11 03:01:00,
2013-05-10 23:11:00,69.0,66.0,30.01,SSW,207,3.0,8.0,91,0.00,,,0.00,,2013-05-11 03:11:00,
2013-05-10 23:21:00,69.0,67.0,30.00,SSE,161,4.0,7.0,92,0.00,,,0.00,,2013-05-11 03:21:00,
2013-05-10 23:33:00,69.0,66.0,29.99,SSE,161,2.0,7.0,91,0.00,,,0.00,,2013-05-11 03:33:00,
2013-05-10 23:42:00,69.0,66.0,30.00,SSE,166,3.0,7.0,91,0.00,,,0.00,,2013-05-11 03:42:00,
2013-05-10 23:53:00,69.0,66.0,30.00,SSE,166,3.0,7.0,91,0.00,,,0.00,,2013-05-11 03:53:00,